AD6NH Weather Reports


Display with metric or nautical units.
time (UTC)temp
F
wind
direction
speed
MPH
gust
MPH
rain 1hr
in
rain 24hr
in
rain mn
in
humidity
%
barometer
mb
20260507220702 75 183 7.0 11.0 0.00 0.00 0.00 51 1014.9
20260507215702 75 245 6.0 11.0 0.00 0.00 0.00 52 1015.0
20260507214702 76 222 6.0 10.0 0.00 0.00 0.00 51 1015.1
20260507213702 76 227 4.0 10.0 0.00 0.00 0.00 50 1015.2
20260507212702 76 141 6.0 12.0 0.00 0.00 0.00 51 1015.2
20260507211702 76 232 5.0 11.0 0.00 0.00 0.00 51 1015.3
20260507210702 76 241 8.0 11.0 0.00 0.00 0.00 51 1015.4
20260507205703 75 246 5.0 9.0 0.00 0.00 0.00 52 1015.5
20260507204702 76 233 5.0 12.0 0.00 0.00 0.00 51 1015.6
20260507203702 76 178 7.0 10.0 0.00 0.00 0.00 52 1015.6
20260507202702 76 246 5.0 11.0 0.00 0.00 0.00 52 1015.6
20260507201702 76 234 6.0 10.0 0.00 0.00 0.00 51 1015.7
20260507200702 75 272 5.0 9.0 0.00 0.00 0.00 53 1015.9
20260507195702 77 271 3.0 13.0 0.00 0.00 0.00 51 1016.0
20260507194702 77 207 4.0 8.0 0.00 0.00 0.00 51 1015.9
20260507193702 75 242 2.0 12.0 0.00 0.00 0.00 55 1016.1
20260507192702 74 265 1.0 8.0 0.00 0.00 0.00 56 1016.2
20260507191702 75 258 8.0 10.0 0.00 0.00 0.00 55 1016.2
20260507190702 74 188 3.0 9.0 0.00 0.00 0.00 56 1016.4
20260507185702 73 282 6.0 9.0 0.00 0.00 0.00 58 1016.5
20260507184702 73 211 1.0 9.0 0.00 0.00 0.00 58 1016.6
20260507183702 75 245 3.0 8.0 0.00 0.00 0.00 56 1016.7
20260507182702 75 185 5.0 9.0 0.00 0.00 0.00 55 1016.6
20260507181702 75 196 2.0 6.0 0.00 0.00 0.00 55 1016.6
20260507180702 75 230 3.0 6.0 0.00 0.00 0.00 55 1016.7
20260507175702 75 138 1.0 3.0 0.00 0.00 0.00 54 1016.8
20260507174702 75 163 2.0 5.0 0.00 0.00 0.00 54 1016.8
20260507173702 73 255 3.0 6.0 0.00 0.00 0.00 55 1016.9
20260507172702 73 186 0.0 1.0 0.00 0.00 0.00 56 1016.9
20260507171702 73 206 3.0 6.0 0.00 0.00 0.00 56 1017.0
20260507170702 73 186 0.0 5.0 0.00 0.00 0.00 56 1016.9
20260507165702 72 171 1.0 2.0 0.00 0.00 0.00 58 1017.0
20260507164702 70 250 0.0 2.0 0.00 0.00 0.00 61 1017.1
20260507163702 71 224 1.0 4.0 0.00 0.00 0.00 60 1017.2
20260507162702 68 288 0.0 6.0 0.00 0.00 0.00 66 1017.2
20260507161702 69 313 1.0 3.0 0.00 0.00 0.00 63 1017.2
20260507160702 69 154 1.0 4.0 0.00 0.00 0.00 63 1017.3
20260507155703 68 163 0.0 2.0 0.00 0.00 0.00 65 1017.3
20260507154702 67 132 3.0 4.0 0.00 0.00 0.00 67 1017.4
20260507153702 67 247 2.0 3.0 0.00 0.00 0.00 68 1017.3
20260507152702 67 248 0.0 1.0 0.00 0.00 0.00 69 1017.4
20260507151702 65 248 0.0 1.0 0.00 0.00 0.00 73 1017.5
20260507150702 64 248 2.0 3.0 0.00 0.00 0.00 73 1017.5
20260507145702 66 141 0.0 1.0 0.00 0.00 0.00 71 1017.4
20260507144702 64 141 0.0 2.0 0.00 0.00 0.00 74 1017.4
20260507143702 63 285 0.0 1.0 0.00 0.00 0.00 77 1017.3
20260507142702 62 285 0.0 1.0 0.00 0.00 0.00 78 1017.2
20260507141702 62 285 1.0 2.0 0.00 0.00 0.00 78 1017.1
20260507140702 61 286 1.0 2.0 0.00 0.00 0.00 80 1017.0
20260507135702 61 286 0.0 0.0 0.00 0.00 0.00 79 1016.9
20260507134702 61 286 0.0 0.0 0.00 0.00 0.00 80 1016.8
20260507133702 56 286 0.0 0.0 0.00 0.00 0.00 89 1016.7
20260507132702 56 286 0.0 0.0 0.00 0.00 0.00 89 1016.7
20260507131702 55 286 0.0 0.0 0.00 0.00 0.00 89 1016.6
20260507130702 55 286 0.0 0.0 0.00 0.00 0.00 89 1016.6
20260507125702 55 286 0.0 0.0 0.00 0.00 0.00 90 1016.4
20260507124702 55 287 0.0 1.0 0.00 0.00 0.00 89 1016.4
20260507123702 56 286 0.0 0.0 0.00 0.00 0.00 88 1016.3
20260507122702 56 286 0.0 0.0 0.00 0.00 0.00 89 1016.3
20260507121702 55 286 0.0 0.0 0.00 0.00 0.00 88 1016.3
20260507120702 56 286 0.0 0.0 0.00 0.00 0.00 88 1016.5
20260507115702 56 286 0.0 0.0 0.00 0.00 0.00 88 1016.5
20260507114702 56 286 0.0 0.0 0.00 0.00 0.00 88 1016.5
20260507113702 57 287 0.0 1.0 0.00 0.00 0.00 87 1016.5
20260507112702 57 287 0.0 1.0 0.00 0.00 0.00 86 1016.5
20260507111702 57 287 0.0 1.0 0.00 0.00 0.00 86 1016.6
20260507110702 57 286 0.0 1.0 0.00 0.00 0.00 87 1016.7
20260507105702 56 286 0.0 0.0 0.00 0.00 0.00 87 1016.7
20260507104702 56 286 0.0 0.0 0.00 0.00 0.00 86 1016.7
20260507103702 57 287 0.0 1.0 0.00 0.00 0.00 85 1016.8
20260507102702 58 286 0.0 1.0 0.00 0.00 0.00 85 1016.9
20260507101702 57 286 0.0 1.0 0.00 0.00 0.00 85 1016.8
20260507100702 58 286 0.0 1.0 0.00 0.00 0.00 83 1016.9
20260507095702 58 286 1.0 2.0 0.00 0.00 0.00 83 1016.9
20260507094702 58 286 0.0 0.0 0.00 0.00 0.00 83 1016.9
20260507093702 59 286 0.0 1.0 0.00 0.00 0.00 83 1017.1
20260507092702 58 286 0.0 1.0 0.00 0.00 0.00 84 1017.3
20260507091702 58 286 0.0 0.0 0.00 0.00 0.00 84 1017.3
20260507090702 58 286 0.0 0.0 0.00 0.00 0.00 84 1017.5
20260507085702 58 286 0.0 0.0 0.00 0.00 0.00 83 1017.5
20260507084702 58 286 0.0 0.0 0.00 0.00 0.00 83 1017.6
20260507083702 59 286 0.0 2.0 0.00 0.00 0.00 82 1017.7
20260507082702 59 307 0.0 2.0 0.00 0.00 0.00 82 1017.8
20260507081702 59 307 0.0 1.0 0.00 0.00 0.00 82 1017.8
20260507080702 59 307 0.0 0.0 0.00 0.00 0.00 81 1017.8
20260507075702 60 328 1.0 2.0 0.00 0.00 0.00 80 1017.7
20260507074702 60 296 1.0 2.0 0.00 0.00 0.00 80 1017.8
20260507073702 60 292 2.0 4.0 0.00 0.00 0.00 78 1017.8
20260507072702 61 319 1.0 3.0 0.00 0.00 0.00 78 1017.9
20260507071702 61 279 1.0 3.0 0.00 0.00 0.00 77 1018.0
20260507070702 61 326 1.0 2.0 0.00 0.00 0.00 76 1017.9
20260507065702 61 327 1.0 2.0 0.00 0.00 0.00 76 1018.1
20260507064702 61 327 0.0 2.0 0.00 0.00 0.00 76 1018.0
20260507063702 61 306 0.0 1.0 0.00 0.00 0.00 76 1018.2
20260507062702 61 305 0.0 2.0 0.00 0.00 0.00 75 1018.1
20260507061702 61 304 1.0 3.0 0.00 0.00 0.00 75 1018.1
20260507060703 62 305 0.0 1.0 0.00 0.00 0.00 74 1018.1
20260507055702 62 309 0.0 2.0 0.00 0.00 0.00 73 1018.1
20260507054702 62 298 1.0 2.0 0.00 0.00 0.00 73 1018.1
20260507053702 62 278 2.0 3.0 0.00 0.00 0.00 72 1018.0
20260507052702 62 301 1.0 4.0 0.00 0.00 0.00 72 1018.0
20260507051702 62 274 1.0 4.0 0.00 0.00 0.00 72 1017.9
20260507050702 62 305 4.0 5.0 0.00 0.00 0.00 71 1017.9
20260507045702 63 244 2.0 4.0 0.00 0.00 0.00 70 1017.9
20260507044702 63 284 2.0 4.0 0.00 0.00 0.00 68 1018.0
20260507043702 63 284 4.0 5.0 0.00 0.00 0.00 66 1017.9
20260507042702 64 266 3.0 4.0 0.00 0.00 0.00 65 1017.8
20260507041702 64 277 2.0 3.0 0.00 0.00 0.00 65 1017.8
20260507040702 64 295 1.0 6.0 0.00 0.00 0.00 65 1017.6
20260507035702 64 304 3.0 5.0 0.00 0.00 0.00 65 1017.5
20260507034702 64 324 2.0 5.0 0.00 0.00 0.00 64 1017.6
20260507033702 65 283 5.0 6.0 0.00 0.00 0.00 62 1017.3
20260507032702 65 275 4.0 9.0 0.00 0.00 0.00 62 1017.2
20260507031702 65 322 2.0 4.0 0.00 0.00 0.00 61 1017.1
20260507030702 66 265 6.0 9.0 0.00 0.00 0.00 61 1017.0
20260507025702 67 270 3.0 5.0 0.00 0.00 0.00 59 1016.9
20260507024702 67 264 2.0 4.0 0.00 0.00 0.00 59 1016.9
20260507023702 68 274 5.0 9.0 0.00 0.00 0.00 57 1016.7
20260507022702 69 277 4.0 5.0 0.00 0.00 0.00 57 1016.6
20260507021702 69 253 3.0 6.0 0.00 0.00 0.00 57 1016.6
20260507020702 70 293 2.0 5.0 0.00 0.00 0.00 55 1016.4
20260507015702 71 244 2.0 5.0 0.00 0.00 0.00 55 1016.4
20260507014702 71 237 4.0 6.0 0.00 0.00 0.00 59 1016.4
20260507013702 71 215 4.0 9.0 0.00 0.00 0.00 57 1016.3
20260507012702 71 194 6.0 8.0 0.00 0.00 0.00 56 1016.2
20260507011702 71 234 4.0 8.0 0.00 0.00 0.00 57 1016.2
20260507010702 71 199 3.0 9.0 0.00 0.00 0.00 54 1016.1
20260507005702 72 131 4.0 10.0 0.00 0.00 0.00 49 1016.1
20260507004702 72 181 8.0 10.0 0.00 0.00 0.00 49 1016.1
20260507003702 72 209 5.0 10.0 0.00 0.00 0.00 48 1016.2
20260507002702 73 219 4.0 9.0 0.00 0.00 0.00 51 1016.1
20260507001702 73 180 10.0 15.0 0.00 0.00 0.00 50 1016.1
20260507000702 74 170 5.0 6.0 0.00 0.00 0.00 50 1016.0
20260506235702 73 201 6.0 11.0 0.00 0.00 0.00 50 1016.0
20260506234702 73 185 5.0 8.0 0.00 0.00 0.00 50 1016.1
20260506233702 73 189 7.0 10.0 0.00 0.00 0.00 50 1016.1
20260506232702 73 207 4.0 11.0 0.00 0.00 0.00 49 1016.1
20260506231702 74 235 7.0 10.0 0.00 0.00 0.00 48 1016.1
20260506230702 72 243 5.0 9.0 0.00 0.00 0.00 50 1016.3
20260506225702 73 225 9.0 11.0 0.00 0.00 0.00 50 1016.5
20260506224702 74 237 7.0 11.0 0.00 0.00 0.00 48 1016.5
20260506223702 74 252 7.0 10.0 0.00 0.00 0.00 49 1016.6
20260506222702 73 197 4.0 8.0 0.00 0.00 0.00 48 1016.6
20260506221702 74 243 8.0 10.0 0.00 0.00 0.00 46 1016.8